Simultaneous Nadir Overpasses (SNOs) Predictions

Prediction of SNOs between GOES-17 and LANDSAT-8 Satellite Orbit:

Table of predicted SNOs for the next 14.0 days since TLE Epoch: 3/19/2022
Index Date Time (GOES-17) GOES-17 Lat,Lon LANDSAT-8 Lat,Lon Distance(km) Time Diff (sec)
1 03/20/2022 19:22:20 0.04,-137.21 0.05,-137.20 1.49 80
2 03/22/2022 19:07:27 0.04,-137.21 -0.58,-134.24 337.52 80
3 03/23/2022 07:31:31 -0.04,-137.20 -0.52,-139.43 253.62 80
4 03/25/2022 07:16:38 -0.04,-137.18 0.11,-136.47 81.18 80
5 03/27/2022 07:04:25 -0.03,-137.16 0.75,-133.51 415.43 80
6 03/27/2022 19:25:40 0.03,-137.16 0.35,-138.67 170.95 80
7 03/29/2022 19:16:07 0.03,-137.14 -0.30,-135.71 163.24 80
8 03/30/2022 07:37:30 -0.03,-137.13 -0.85,-140.89 428.10 80
9 03/31/2022 19:03:53 0.03,-137.12 -0.89,-132.74 497.42 80
10 04/01/2022 07:25:17 -0.03,-137.11 -0.19,-137.94 93.94 80
